Zurück zum Katalog

THORAD AGENA D DEB

AktivLEO
NORAD 4208·DEBRIS·🇺🇸 United States

Gestartet Sep 30, 1969 von Vandenberg Space Force Base

Loading…

Nächste Überflüge (nächste 24 Stunden)

TLE

AktuellSource: Space-Track

Epoche: Sep 13, 2026, 17:56 UTC

1 04208U 69082BX  26256.74725505  .00000398  00000-0  19034-3 0  9995
2 04208  70.0836 120.5108 0014554 225.3109 134.6828 14.25968911 22493

Verfolge THORAD AGENA D DEB in Echtzeit mit AllMySat

Download on the App Store